Weather History for Bay City, TX

Change the Weather History Date:

Thursday, August 29, 2013

  Actual Average (KLBX) Record (KLBX)
Temperature  
Mean Temperature 84 °F -  
Max Temperature 94 °F 87 °F 97 °F (1999)
Min Temperature 74 °F 72 °F 71 °F (1997)
Cooling Degree Days 19    
Growing Degree Days 34 (Base 50)    
Moisture  
Dew Point 76 °F    
Average Humidity 81    
Maximum Humidity 100    
Minimum Humidity 45    
Precipitation  
Precipitation 0.00 in - - ()
Sea Level Pressure  
Sea Level Pressure 30.02 in    
Wind  
Wind Speed 2 mph (SSW)    
Max Wind Speed 13 mph    
Max Gust Speed -    
Visibility 8 miles    
Events      
Averages and records for this station are not official NWS values.
T = Trace of Precipitation, MM = Missing Value Source: NWS Daily Summary

Daily Weather History Graph

Daily Weather History Graph

Search for Another Location

Airport:

Trip Planner

Search our weather history database for the weather conditions in past years. The results will help you decide how hot, cold, wet, or windy it might be!

Date:

Astronomy

Aug. 29, 2013 Rise Set
Actual Time 6:59 AM CDT 7:48 PM CDT
Civil Twilight 6:35 AM CDT 8:12 PM CDT
Nautical Twilight 6:07 AM CDT 8:40 PM CDT
Astronomical Twilight 5:37 AM CDT 9:09 PM CDT
Moon 1:05 AM CDT (8/29) 3:03 PM CDT (8/29)
Length of Visible Light 13h 36m
Length of Day
12h 48m
Last Quarter, 38% of the Moon is Illuminated
Aug 29
Last Quarter
Sep 5
New
Sep 12
First Quarter
Sep 19
Full
Sep 26
Last Quarter

Hourly Weather History & Observations

Time (CDT) Temp. Heat Index Dew Point Humidity Pressure Visibility Wind Dir Wind Speed Gust Speed Precip Events Conditions
12:15 AM 77.2 °F - 77.2 °F 100% 30.03 in 10.0 mi Calm Calm - N/A   Clear
12:35 AM 77.2 °F - 77.2 °F 100% 30.03 in 10.0 mi Calm Calm - N/A   Clear
12:55 AM 76.8 °F - 76.8 °F 100% 30.03 in 7.0 mi Calm Calm - N/A   Clear
1:15 AM 76.3 °F - 76.3 °F 100% 30.03 in 5.0 mi Calm Calm - N/A   Clear
1:35 AM 75.7 °F - 75.7 °F 100% 30.03 in 5.0 mi Calm Calm - N/A   Scattered Clouds
1:55 AM 75.6 °F - 75.6 °F 100% 30.03 in 5.0 mi Calm Calm - N/A   Scattered Clouds
2:15 AM 75.7 °F - 75.7 °F 100% 30.03 in 5.0 mi Calm Calm - N/A   Scattered Clouds
2:35 AM 75.7 °F - 75.7 °F 100% 30.03 in 5.0 mi Calm Calm - N/A   Mostly Cloudy
2:55 AM 75.7 °F - 75.7 °F 100% 30.03 in 7.0 mi Calm Calm - N/A   Mostly Cloudy
3:15 AM 75.7 °F - 75.7 °F 100% 30.03 in 7.0 mi Calm Calm - N/A   Scattered Clouds
3:35 AM 75.7 °F - 75.7 °F 100% 30.03 in 7.0 mi Calm Calm - N/A   Mostly Cloudy
3:55 AM 75.7 °F - 75.7 °F 100% 30.03 in 5.0 mi Calm Calm - N/A   Scattered Clouds
4:15 AM 75.7 °F - 75.7 °F 100% 30.03 in 5.0 mi Calm Calm - N/A   Scattered Clouds
4:35 AM 75.6 °F - 75.6 °F 100% 30.04 in 7.0 mi Calm Calm - N/A   Mostly Cloudy
4:55 AM 75.9 °F - 75.9 °F 100% 30.04 in 5.0 mi Calm Calm - N/A   Mostly Cloudy
5:15 AM 75.7 °F - 75.7 °F 100% 30.04 in 5.0 mi Calm Calm - N/A   Mostly Cloudy
5:35 AM 75.7 °F - 75.7 °F 100% 30.05 in 5.0 mi Calm Calm - N/A   Scattered Clouds
5:55 AM 75.7 °F - 75.7 °F 100% 30.04 in 5.0 mi Calm Calm - N/A   Clear
6:15 AM 75.9 °F - 75.9 °F 100% 30.05 in 5.0 mi Calm Calm - N/A   Scattered Clouds
6:35 AM 75.2 °F - 75.2 °F 100% 30.05 in 5.0 mi Calm Calm - N/A   Scattered Clouds
6:55 AM 74.8 °F - 74.8 °F 100% 30.06 in 5.0 mi Calm Calm - N/A   Scattered Clouds
7:15 AM 74.8 °F - 74.8 °F 100% 30.06 in 4.0 mi Calm Calm - N/A   Clear
7:35 AM 75.0 °F - 75.0 °F 100% 30.06 in 4.0 mi Calm Calm - N/A   Clear
7:55 AM 76.1 °F - 76.1 °F 100% 30.06 in 5.0 mi Calm Calm - N/A   Clear
8:15 AM 77.5 °F - 77.5 °F 100% 30.06 in 7.0 mi Calm Calm - N/A   Clear
8:35 AM 79.5 °F - 79.5 °F 100% 30.07 in 10.0 mi Calm Calm - N/A   Clear
8:55 AM 81.3 °F 92.0 °F 81.3 °F 100% 30.08 in 10.0 mi Calm Calm - N/A   Clear
9:15 AM 82.2 °F 95.4 °F 82.2 °F 100% 30.08 in 10.0 mi WNW 4.6 mph - N/A   Clear
9:35 AM 83.3 °F 99.3 °F 82.9 °F 99% 30.08 in 10.0 mi WNW 4.6 mph - N/A   Clear
9:55 AM 84.2 °F 100.1 °F 82.0 °F 93% 30.08 in 10.0 mi WNW 5.8 mph - N/A   Clear
10:15 AM 85.5 °F 99.1 °F 79.5 °F 82% 30.08 in 10.0 mi WNW 6.9 mph - N/A   Clear
10:35 AM 86.4 °F 97.8 °F 77.0 °F 74% 30.07 in 10.0 mi West 5.8 mph - N/A   Scattered Clouds
10:55 AM 86.9 °F 97.3 °F 76.1 °F 70% 30.07 in 10.0 mi West 5.8 mph - N/A   Scattered Clouds
11:15 AM 88.0 °F 98.0 °F 75.4 °F 66% 30.07 in 10.0 mi WSW 4.6 mph - N/A   Scattered Clouds
11:35 AM 88.9 °F 98.6 °F 74.7 °F 63% 30.07 in 10.0 mi West 5.8 mph - N/A   Scattered Clouds
11:55 AM 89.1 °F 98.5 °F 74.3 °F 62% 30.07 in 10.0 mi WNW 5.8 mph - N/A   Scattered Clouds
12:15 PM 89.6 °F 99.3 °F 74.5 °F 61% 30.06 in 10.0 mi WNW 4.6 mph - N/A   Scattered Clouds
12:35 PM 90.1 °F 99.4 °F 74.1 °F 59% 30.06 in 10.0 mi West 3.5 mph - N/A   Clear
12:55 PM 91.2 °F 100.8 °F 73.9 °F 57% 30.05 in 10.0 mi SW 5.8 mph - N/A   Clear
1:15 PM 91.4 °F 100.1 °F 73.2 °F 55% 30.04 in 10.0 mi West 5.8 mph - N/A   Scattered Clouds
1:35 PM 91.4 °F 100.1 °F 73.0 °F 55% 30.03 in 10.0 mi Calm Calm - N/A   Scattered Clouds
1:55 PM 91.9 °F 101.3 °F 73.6 °F 55% 30.03 in 10.0 mi Calm Calm - N/A   Clear
2:15 PM 92.5 °F 101.9 °F 73.4 °F 54% 30.02 in 10.0 mi NNW 4.6 mph - N/A   Mostly Cloudy
2:35 PM 92.7 °F 101.1 °F 72.7 °F 52% 30.01 in 10.0 mi ESE 5.8 mph - N/A   Scattered Clouds
2:55 PM 93.0 °F 101.9 °F 73.2 °F 52% 30.00 in 10.0 mi West 4.6 mph - N/A   Mostly Cloudy
3:15 PM 92.8 °F 102.2 °F 73.2 °F 53% 29.99 in 10.0 mi Calm Calm - N/A   Mostly Cloudy
3:35 PM 93.9 °F 103.4 °F 73.2 °F 51% 29.98 in 10.0 mi NNW 3.5 mph - N/A   Scattered Clouds
3:55 PM 94.3 °F 102.2 °F 72.0 °F 48% 29.98 in 10.0 mi Calm Calm - N/A   Scattered Clouds
4:15 PM 94.5 °F 102.6 °F 72.0 °F 48% 29.97 in 10.0 mi Calm Calm - N/A   Clear
4:35 PM 93.6 °F 100.7 °F 71.4 °F 48% 29.96 in 10.0 mi Calm Calm - N/A   Clear
4:55 PM 94.8 °F 101.5 °F 70.5 °F 45% 29.96 in 10.0 mi ESE 9.2 mph - N/A   Clear
5:15 PM 93.4 °F 104.8 °F 75.0 °F 55% 29.96 in 10.0 mi South 10.4 mph - N/A   Clear
5:35 PM 92.7 °F 102.4 °F 73.6 °F 54% 29.96 in 10.0 mi South 12.7 mph - N/A   Clear
5:55 PM 91.4 °F 98.9 °F 72.3 °F 53% 29.95 in 10.0 mi South 8.1 mph - N/A   Clear
6:15 PM 90.7 °F 97.4 °F 71.6 °F 53% 29.96 in 10.0 mi SSE 10.4 mph - N/A   Clear
6:35 PM 89.4 °F 95.8 °F 71.2 °F 55% 29.96 in 10.0 mi South 10.4 mph - N/A   Clear
6:55 PM 88.3 °F 94.5 °F 71.2 °F 57% 29.97 in 10.0 mi SSE 9.2 mph - N/A   Clear
7:15 PM 86.9 °F 93.3 °F 72.1 °F 61% 29.97 in 10.0 mi SSE 6.9 mph - N/A   Clear
7:35 PM 85.5 °F 92.6 °F 73.2 °F 67% 29.97 in 10.0 mi South 6.9 mph - N/A   Clear
7:55 PM 83.8 °F 91.4 °F 74.7 °F 74% 29.97 in 10.0 mi South 4.6 mph - N/A   Clear
8:15 PM 82.8 °F 90.1 °F 75.4 °F 78% 29.97 in 10.0 mi SSE 4.6 mph - N/A   Clear
8:35 PM 81.9 °F 88.9 °F 75.9 °F 82% 29.97 in 10.0 mi South 3.5 mph - N/A   Clear
8:55 PM 81.1 °F 88.0 °F 76.6 °F 86% 29.98 in 10.0 mi Calm Calm - N/A   Clear
9:15 PM 80.8 °F 87.6 °F 77.4 °F 89% 29.98 in 10.0 mi Calm Calm - N/A   Clear
9:35 PM 80.2 °F 87.8 °F 79.9 °F 99% 29.98 in 10.0 mi SSE 3.5 mph - N/A   Clear
9:55 PM 80.1 °F 87.4 °F 80.1 °F 100% 29.98 in 10.0 mi SSE 3.5 mph - N/A   Clear
10:15 PM 79.9 °F - 79.9 °F 100% 29.98 in 10.0 mi Calm Calm - N/A   Clear
10:35 PM 79.5 °F - 79.5 °F 100% 29.99 in 10.0 mi South 3.5 mph - N/A   Clear
10:55 PM 79.2 °F - 79.2 °F 100% 29.99 in 10.0 mi South 3.5 mph - N/A   Clear
11:15 PM 79.2 °F - 79.2 °F 100% 29.99 in 10.0 mi SSE 4.6 mph - N/A   Clear
11:35 PM 79.2 °F - 79.2 °F 100% 29.99 in 10.0 mi SSE 3.5 mph - N/A   Clear
11:55 PM 79.0 °F - 79.0 °F 100% 29.99 in 10.0 mi Calm Calm - N/A   Clear